Wenatchee, WA
on Monday, December 3, 2012

Monday
Previous Day Next Day
Daily Summary
 ActualAverageRecord
Temperature
Mean Temperature °F 28°F  
Max Temperature 48°F 33°F 57°F (1975)
Min Temperature 38°F 22°F 6°F (1984)
Degree Days
Heating Degree Days 22 37  
Month to date heating degree days 68 111  
Since 1 July heating degree days 1683 1993  
Cooling Degree Days 0 0  
Month to date cooling degree days 0 0  
Year to date cooling degree days 294 249  
Moisture
Dew Point 34°F   
Average Humidity 73    
Maximum Humidity 85    
Minimum Humidity 58    
Precipitation
Precipitation T in 0.09 in 0.40 in (2007)
Month to date precipitation 0.50 0.27  
Year to date precipitation 21.04 14.82  
Snow
Snow 0.00 in 0.50 in in ()
Month to date snowfall 0.0 1.4  
Since 1 July snowfall 7.2 9.3  
Snow Depth 0.00 in   
Wind
Wind Speed 7 mph   
Max Wind Speed 64 mph   
Max Gust Speed 74 mph   
Visibility 10 miles   
Events     

Key: T is trace of precipitation, MM is missing value
Source: NWS Daily Summary
Time(PST)TemperatureDew PointHumidity Pressure Visibility Wind DirectionWind SpeedGust SpeedPrecipitationEvents Conditions
12:55 AM 37.0°F 30.9°F 79% 29.79 in 10.0 miles NE 4.6 mph - N/A   Mostly Cloudy
1:55 AM 35.1°F 30.9°F 85% 29.81 in 10.0 miles NW 4.6 mph - N/A   Clear
2:55 AM 35.1°F 30.9°F 85% 29.83 in 10.0 miles NE 3.5 mph - N/A   Partly Cloudy
3:55 AM 34.0°F 30.0°F 85% 29.83 in 10.0 miles Calm Calm - N/A   Scattered Clouds
4:55 AM 39.0°F 32.0°F 76% 29.84 in 10.0 miles ENE 5.8 mph - N/A   Partly Cloudy
5:55 AM 37.9°F 32.0°F 79% 29.86 in 10.0 miles East 10.4 mph - N/A   Partly Cloudy
7:55 AM 39.0°F 30.9°F 73% 29.90 in 8.0 miles East 5.8 mph - N/A   Partly Cloudy
8:55 AM 39.0°F 33.1°F 79% 29.94 in 10.0 miles Variable 3.5 mph - N/A   Overcast
9:55 AM 41.0°F 36.0°F 82% 29.97 in 10.0 miles Calm Calm - N/A   Overcast
11:55 AM 43.0°F 36.0°F 76% 29.99 in 10.0 miles SSW 3.5 mph - N/A   Mostly Cloudy
12:55 PM 44.1°F 36.0°F 73% 29.99 in 10.0 miles North - - N/A   Squalls
1:48 PM 44.6°F 35.6°F 71% 29.96 in 10.0 miles East 64.4 mph 73.6 mph N/A   Squalls
1:55 PM 44.1°F 36.0°F 73% 29.99 in 10.0 miles North - - N/A   Clear
2:55 PM 45.0°F 37.0°F 74% 29.99 in 10.0 miles Calm Calm - N/A   Scattered Clouds
3:55 PM 45.0°F 35.1°F 68% 30.00 in 10.0 miles Calm Calm - N/A   Mostly Cloudy
4:55 PM 44.1°F 36.0°F 73% 29.99 in 10.0 miles NE 6.9 mph - N/A   Overcast
5:55 PM 44.1°F 36.0°F 73% 29.98 in 10.0 miles Calm Calm - N/A   Overcast
6:55 PM 45.0°F 36.0°F 71% 29.96 in 10.0 miles East 5.8 mph - 0.00 in   Overcast
7:55 PM 46.9°F 36.0°F 66% 29.95 in 10.0 miles East 4.6 mph - N/A   Overcast
8:55 PM 48.0°F 37.0°F 66% 29.91 in 10.0 miles East 9.2 mph - N/A   Overcast
9:55 PM 46.0°F 36.0°F 68% 29.88 in 10.0 miles SSE 6.9 mph - N/A   Mostly Cloudy
10:18 PM 50.0°F 35.6°F 58% 29.85 in 10.0 miles ESE 10.4 mph - N/A   Overcast
10:55 PM 48.0°F 36.0°F 63% 29.85 in 10.0 miles East 10.4 mph - N/A   Mostly Cloudy
11:55 PM 46.9°F 36.0°F 66% 29.82 in 10.0 miles ESE 5.8 mph - N/A   Overcast
Moon Phase
Dec. 03 Dec. 06 Dec. 13 Dec. 20 Dec. 28
Sunrise:07:30 AM (PST) Moon Rise:09:15 PM (PST)12/3
Sunset:04:11 PM (PST) Moon Set:10:46 AM (PST)12/3

Copyright © 2014 The Weather Underground, Inc.